Location: Hutchins
(43.0916°N, 93.8811°W)
Time: 01:19:20
(UTC+00:00)

ACS3 Solar Sail - Pass Details

Date: 20 October 2024
Orbit: 961 x 1022 km, 97.5° (Epoch: 03 November)

Event Time Altitude Azimuth Distance (km) Brightness Sun altitude
Exits shadow 23:59:10 - 83° (E) 2,997 3.6 -6.9°
Reaches altitude 10° 00:00:17 10° 74° (ENE) 2,826 3.6 -7.1°
Maximum altitude 00:02:26 12° 54° (NE) 2,689 3.6 -7.5°
Drops below altitude 10° 00:04:35 10° 34° (NE) 2,828 3.8 -7.9°
Sets 00:08:59 0° 6° (N) 3,778 4.8 -8.7°
